| time (UTC) | temp F | wind direction | speed MPH | gust MPH | rain 1hr in | rain 24hr in | rain mn in | humidity % | barometer mb |
| 20260903064119 | 66 | 249 | 4.0 | 7.0 | 0.00 | 0.00 | 0.00 | 66 | 1021.9 |
| 20260903063506 | 65 | 241 | 4.0 | 6.0 | 0.00 | 0.00 | 0.00 | 69 | 1022.0 |
| 20260903062507 | 64 | 241 | 3.0 | 6.0 | 0.00 | 0.00 | 0.00 | 72 | 1022.1 |
| 20260903061120 | 63 | 245 | 3.0 | 5.0 | 0.00 | 0.00 | 0.00 | 73 | 1022.1 |
| 20260903060507 | 63 | 250 | 3.0 | 5.0 | 0.00 | 0.00 | 0.00 | 74 | 1022.1 |
| 20260903055506 | 62 | 244 | 4.0 | 5.0 | 0.00 | 0.00 | 0.00 | 76 | 1022.2 |
| 20260903054119 | 61 | 245 | 4.0 | 6.0 | 0.00 | 0.00 | 0.00 | 76 | 1022.0 |
| 20260903053507 | 61 | 242 | 4.0 | 6.0 | 0.00 | 0.00 | 0.00 | 77 | 1022.0 |
| 20260903052507 | 61 | 237 | 4.0 | 6.0 | 0.00 | 0.00 | 0.00 | 77 | 1022.1 |
| 20260903051120 | 61 | 238 | 3.0 | 5.0 | 0.00 | 0.00 | 0.00 | 77 | 1021.9 |
| 20260903050506 | 61 | 237 | 4.0 | 5.0 | 0.00 | 0.00 | 0.00 | 78 | 1021.8 |
| 20260903045507 | 61 | 227 | 4.0 | 6.0 | 0.00 | 0.00 | 0.00 | 77 | 1021.8 |
| 20260903044119 | 61 | 223 | 4.0 | 6.0 | 0.00 | 0.00 | 0.00 | 78 | 1021.7 |
| 20260903043506 | 61 | 229 | 4.0 | 7.0 | 0.00 | 0.00 | 0.00 | 77 | 1021.7 |
| 20260903042507 | 61 | 237 | 4.0 | 6.0 | 0.00 | 0.00 | 0.00 | 78 | 1021.7 |
| 20260903041119 | 62 | 232 | 4.0 | 6.0 | 0.00 | 0.00 | 0.00 | 77 | 1021.6 |
| 20260903040507 | 62 | 224 | 4.0 | 8.0 | 0.00 | 0.00 | 0.00 | 77 | 1021.6 |
| 20260903035507 | 62 | 225 | 4.0 | 6.0 | 0.00 | 0.00 | 0.00 | 78 | 1021.5 |
| 20260903034506 | 62 | 213 | 3.0 | 5.0 | 0.00 | 0.00 | 0.00 | 79 | 1021.5 |
| 20260903033506 | 62 | 226 | 4.0 | 6.0 | 0.00 | 0.00 | 0.00 | 79 | 1021.4 |
| 20260903032507 | 62 | 233 | 4.0 | 5.0 | 0.00 | 0.00 | 0.00 | 78 | 1021.4 |
| 20260903031120 | 62 | 243 | 4.0 | 6.0 | 0.00 | 0.00 | 0.00 | 78 | 1021.4 |
| 20260903030507 | 62 | 238 | 4.0 | 6.0 | 0.00 | 0.00 | 0.00 | 78 | 1021.4 |
| 20260903025507 | 62 | 235 | 3.0 | 5.0 | 0.00 | 0.00 | 0.00 | 78 | 1021.4 |
| 20260903024507 | 62 | 240 | 4.0 | 6.0 | 0.00 | 0.00 | 0.00 | 78 | 1021.4 |
| 20260903023507 | 62 | 235 | 4.0 | 7.0 | 0.00 | 0.00 | 0.00 | 78 | 1021.3 |
| 20260903022507 | 62 | 236 | 4.0 | 6.0 | 0.00 | 0.00 | 0.00 | 78 | 1021.2 |
| 20260903021119 | 62 | 241 | 4.0 | 5.0 | 0.00 | 0.00 | 0.00 | 79 | 1021.2 |
| 20260903020507 | 62 | 227 | 4.0 | 6.0 | 0.00 | 0.00 | 0.00 | 78 | 1021.2 |
| 20260903015507 | 62 | 235 | 3.0 | 5.0 | 0.00 | 0.00 | 0.00 | 78 | 1021.2 |
| 20260903014119 | 62 | 250 | 4.0 | 7.0 | 0.00 | 0.00 | 0.00 | 77 | 1021.2 |
| 20260903013506 | 62 | 244 | 4.0 | 6.0 | 0.00 | 0.00 | 0.00 | 78 | 1021.2 |
| 20260903012506 | 62 | 248 | 4.0 | 6.0 | 0.00 | 0.00 | 0.00 | 77 | 1021.2 |
| 20260903011120 | 62 | 215 | 4.0 | 7.0 | 0.00 | 0.00 | 0.00 | 78 | 1021.0 |
| 20260903010507 | 62 | 216 | 3.0 | 6.0 | 0.00 | 0.00 | 0.00 | 78 | 1020.8 |
| 20260903005507 | 62 | 262 | 4.0 | 7.0 | 0.00 | 0.00 | 0.00 | 79 | 1021.0 |
| 20260903004120 | 61 | 235 | 4.0 | 5.0 | 0.00 | 0.00 | 0.00 | 81 | 1021.1 |
| 20260903003507 | 62 | 215 | 3.0 | 4.0 | 0.00 | 0.00 | 0.00 | 81 | 1021.0 |
| 20260903002507 | 62 | 221 | 3.0 | 4.0 | 0.00 | 0.00 | 0.00 | 79 | 1020.8 |
| 20260903001519 | 62 | 217 | 4.0 | 5.0 | 0.00 | 0.00 | 0.00 | 80 | 1020.8 |
| 20260903000506 | 61 | 210 | 3.0 | 4.0 | 0.00 | 0.00 | 0.00 | 81 | 1020.9 |
| 20260902235506 | 62 | 225 | 2.0 | 3.0 | 0.00 | 0.00 | 0.00 | 80 | 1020.8 |
| 20260902234120 | 62 | 218 | 2.0 | 3.0 | 0.00 | 0.00 | 0.00 | 79 | 1020.8 |
| 20260902233506 | 62 | 226 | 2.0 | 3.0 | 0.00 | 0.00 | 0.00 | 80 | 1020.8 |
| 20260902232506 | 62 | 226 | 3.0 | 5.0 | 0.00 | 0.00 | 0.00 | 79 | 1021.0 |
| 20260902231507 | 62 | 225 | 4.0 | 5.0 | 0.00 | 0.00 | 0.00 | 79 | 1021.0 |
| 20260902230506 | 62 | 231 | 3.0 | 4.0 | 0.00 | 0.00 | 0.00 | 79 | 1021.1 |
| 20260902225507 | 62 | 235 | 3.0 | 4.0 | 0.00 | 0.00 | 0.00 | 78 | 1021.1 |
| 20260902224120 | 62 | 227 | 3.0 | 4.0 | 0.00 | 0.00 | 0.00 | 78 | 1021.0 |
| 20260902223507 | 63 | 238 | 2.0 | 3.0 | 0.00 | 0.00 | 0.00 | 78 | 1020.9 |
| 20260902222507 | 63 | 246 | 2.0 | 2.0 | 0.00 | 0.00 | 0.00 | 77 | 1020.9 |
| 20260902221120 | 63 | 264 | 2.0 | 2.0 | 0.00 | 0.00 | 0.00 | 76 | 1020.9 |
| 20260902220506 | 63 | 237 | 2.0 | 3.0 | 0.00 | 0.00 | 0.00 | 76 | 1020.7 |
| 20260902215506 | 63 | 255 | 1.0 | 2.0 | 0.00 | 0.00 | 0.00 | 76 | 1020.6 |
| 20260902214120 | 64 | 307 | 2.0 | 3.0 | 0.00 | 0.00 | 0.00 | 76 | 1020.5 |
| 20260902213506 | 63 | 302 | 1.0 | 3.0 | 0.00 | 0.00 | 0.00 | 76 | 1020.6 |
| 20260902211120 | 64 | 331 | 1.0 | 2.0 | 0.00 | 0.00 | 0.00 | 75 | 1020.3 |
| 20260902210507 | 63 | 320 | 1.0 | 2.0 | 0.00 | 0.00 | 0.00 | 75 | 1020.3 |
| 20260902205507 | 63 | 355 | 0.0 | 2.0 | 0.00 | 0.00 | 0.00 | 76 | 1020.5 |
| 20260902204121 | 64 | 2 | 1.0 | 3.0 | 0.00 | 0.00 | 0.00 | 74 | 1020.4 |
| 20260902203506 | 64 | 7 | 1.0 | 3.0 | 0.00 | 0.00 | 0.00 | 73 | 1020.4 |
| 20260902202507 | 64 | 146 | 3.0 | 4.0 | 0.00 | 0.00 | 0.00 | 72 | 1020.4 |
| 20260902201120 | 65 | 140 | 4.0 | 5.0 | 0.00 | 0.00 | 0.00 | 72 | 1020.3 |
| 20260902200507 | 66 | 138 | 2.0 | 5.0 | 0.00 | 0.00 | 0.00 | 70 | 1020.2 |
| 20260902195507 | 67 | 123 | 2.0 | 4.0 | 0.00 | 0.00 | 0.00 | 67 | 1020.1 |
| 20260902194120 | 68 | 121 | 3.0 | 4.0 | 0.00 | 0.00 | 0.00 | 64 | 1020.0 |
| 20260902193507 | 70 | 128 | 3.0 | 5.0 | 0.00 | 0.00 | 0.00 | 57 | 1019.7 |
| 20260902192506 | 71 | 118 | 3.0 | 5.0 | 0.00 | 0.00 | 0.00 | 56 | 1019.7 |
| 20260902191120 | 71 | 87 | 4.0 | 7.0 | 0.00 | 0.00 | 0.00 | 55 | 1019.6 |
| 20260902190507 | 72 | 63 | 6.0 | 8.0 | 0.00 | 0.00 | 0.00 | 53 | 1019.5 |
| 20260902185507 | 72 | 68 | 6.0 | 9.0 | 0.00 | 0.00 | 0.00 | 53 | 1019.5 |
| 20260902184120 | 72 | 82 | 5.0 | 10.0 | 0.00 | 0.00 | 0.00 | 53 | 1019.3 |
| 20260902183507 | 72 | 95 | 3.0 | 7.0 | 0.00 | 0.00 | 0.00 | 54 | 1019.2 |
| 20260902182507 | 72 | 92 | 3.0 | 8.0 | 0.00 | 0.00 | 0.00 | 53 | 1019.1 |
| 20260902181120 | 73 | 72 | 6.0 | 9.0 | 0.00 | 0.00 | 0.00 | 50 | 1018.7 |
| 20260902180507 | 73 | 65 | 7.0 | 9.0 | 0.00 | 0.00 | 0.00 | 50 | 1018.7 |
| 20260902175507 | 74 | 63 | 7.0 | 10.0 | 0.00 | 0.00 | 0.00 | 49 | 1018.5 |
| 20260902174120 | 74 | 64 | 7.0 | 11.0 | 0.00 | 0.00 | 0.00 | 49 | 1018.4 |
| 20260902173506 | 74 | 66 | 8.0 | 11.0 | 0.00 | 0.00 | 0.00 | 49 | 1018.5 |
| 20260902172507 | 75 | 63 | 6.0 | 10.0 | 0.00 | 0.00 | 0.00 | 48 | 1018.4 |
| 20260902171120 | 75 | 47 | 6.0 | 10.0 | 0.00 | 0.00 | 0.00 | 46 | 1018.4 |
| 20260902170507 | 76 | 49 | 6.0 | 10.0 | 0.00 | 0.00 | 0.00 | 45 | 1018.4 |
| 20260902165507 | 76 | 46 | 5.0 | 9.0 | 0.00 | 0.00 | 0.00 | 44 | 1018.3 |
| 20260902164120 | 77 | 354 | 4.0 | 6.0 | 0.00 | 0.00 | 0.00 | 43 | 1018.3 |
| 20260902163507 | 77 | 341 | 3.0 | 6.0 | 0.00 | 0.00 | 0.00 | 41 | 1018.1 |
| 20260902162507 | 78 | 328 | 4.0 | 7.0 | 0.00 | 0.00 | 0.00 | 38 | 1018.0 |
| 20260902161120 | 78 | 285 | 3.0 | 9.0 | 0.00 | 0.00 | 0.00 | 38 | 1018.1 |
| 20260902160506 | 78 | 280 | 3.0 | 6.0 | 0.00 | 0.00 | 0.00 | 38 | 1018.0 |
| 20260902155507 | 80 | 310 | 4.0 | 9.0 | 0.00 | 0.00 | 0.00 | 36 | 1018.0 |
| 20260902154120 | 79 | 274 | 4.0 | 8.0 | 0.00 | 0.00 | 0.00 | 37 | 1018.1 |
| 20260902153507 | 79 | 270 | 5.0 | 10.0 | 0.00 | 0.00 | 0.00 | 38 | 1018.2 |
| 20260902152506 | 78 | 254 | 5.0 | 9.0 | 0.00 | 0.00 | 0.00 | 36 | 1018.2 |
| 20260902151120 | 79 | 280 | 5.0 | 11.0 | 0.00 | 0.00 | 0.00 | 36 | 1018.2 |
| 20260902150507 | 80 | 322 | 2.0 | 8.0 | 0.00 | 0.00 | 0.00 | 35 | 1018.1 |
| 20260902145507 | 80 | 352 | 4.0 | 10.0 | 0.00 | 0.00 | 0.00 | 37 | 1018.4 |
| 20260902144120 | 79 | 275 | 4.0 | 11.0 | 0.00 | 0.00 | 0.00 | 38 | 1018.4 |
| 20260902143506 | 79 | 285 | 3.0 | 8.0 | 0.00 | 0.00 | 0.00 | 38 | 1018.5 |
| 20260902142507 | 78 | 238 | 3.0 | 7.0 | 0.00 | 0.00 | 0.00 | 39 | 1018.7 |
| 20260902141120 | 78 | 258 | 4.0 | 9.0 | 0.00 | 0.00 | 0.00 | 39 | 1018.7 |
| 20260902140507 | 78 | 280 | 4.0 | 10.0 | 0.00 | 0.00 | 0.00 | 38 | 1018.7 |
| 20260902135507 | 79 | 275 | 4.0 | 9.0 | 0.00 | 0.00 | 0.00 | 40 | 1018.6 |
| 20260902134118 | 78 | 251 | 3.0 | 11.0 | 0.00 | 0.00 | 0.00 | 41 | 1018.8 |
| 20260902133507 | 78 | 302 | 3.0 | 10.0 | 0.00 | 0.00 | 0.00 | 40 | 1018.8 |
| 20260902132507 | 78 | 321 | 2.0 | 9.0 | 0.00 | 0.00 | 0.00 | 42 | 1018.9 |
| 20260902131120 | 77 | 251 | 3.0 | 9.0 | 0.00 | 0.00 | 0.00 | 42 | 1019.1 |
| 20260902130507 | 76 | 236 | 3.0 | 7.0 | 0.00 | 0.00 | 0.00 | 44 | 1019.3 |
| 20260902125507 | 76 | 293 | 3.0 | 7.0 | 0.00 | 0.00 | 0.00 | 44 | 1019.3 |
| 20260902124119 | 75 | 266 | 4.0 | 8.0 | 0.00 | 0.00 | 0.00 | 45 | 1019.4 |
| 20260902123507 | 77 | 325 | 3.0 | 7.0 | 0.00 | 0.00 | 0.00 | 44 | 1019.4 |
| 20260902122507 | 76 | 323 | 3.0 | 7.0 | 0.00 | 0.00 | 0.00 | 45 | 1019.4 |
| 20260902121120 | 76 | 333 | 3.0 | 6.0 | 0.00 | 0.00 | 0.00 | 44 | 1019.5 |
| 20260902120506 | 76 | 294 | 3.0 | 8.0 | 0.00 | 0.00 | 0.00 | 44 | 1019.6 |
| 20260902115506 | 75 | 300 | 2.0 | 6.0 | 0.00 | 0.00 | 0.00 | 46 | 1019.6 |
| 20260902114120 | 75 | 314 | 2.0 | 5.0 | 0.00 | 0.00 | 0.00 | 46 | 1019.9 |
| 20260902113507 | 76 | 17 | 4.0 | 7.0 | 0.00 | 0.00 | 0.00 | 45 | 1019.8 |
| 20260902112507 | 76 | 349 | 4.0 | 7.0 | 0.00 | 0.00 | 0.00 | 46 | 1019.9 |
| 20260902111120 | 76 | 345 | 3.0 | 7.0 | 0.00 | 0.00 | 0.00 | 45 | 1020.0 |
| 20260902110507 | 76 | 353 | 4.0 | 7.0 | 0.00 | 0.00 | 0.00 | 46 | 1020.2 |
| 20260902105506 | 74 | 352 | 3.0 | 6.0 | 0.00 | 0.00 | 0.00 | 47 | 1020.3 |
| 20260902104120 | 75 | 308 | 2.0 | 7.0 | 0.00 | 0.00 | 0.00 | 48 | 1020.4 |
| 20260902103507 | 75 | 311 | 3.0 | 7.0 | 0.00 | 0.00 | 0.00 | 47 | 1020.4 |
| 20260902102506 | 74 | 299 | 3.0 | 7.0 | 0.00 | 0.00 | 0.00 | 48 | 1020.5 |
| 20260902101120 | 75 | 327 | 3.0 | 7.0 | 0.00 | 0.00 | 0.00 | 48 | 1020.5 |
| 20260902100507 | 76 | 357 | 4.0 | 8.0 | 0.00 | 0.00 | 0.00 | 46 | 1020.4 |
| 20260902095507 | 75 | 334 | 3.0 | 7.0 | 0.00 | 0.00 | 0.00 | 48 | 1020.5 |
| 20260902094120 | 74 | 321 | 4.0 | 9.0 | 0.00 | 0.00 | 0.00 | 49 | 1020.6 |
| 20260902093507 | 74 | 5 | 3.0 | 9.0 | 0.00 | 0.00 | 0.00 | 50 | 1020.6 |
| 20260902092507 | 73 | 251 | 2.0 | 6.0 | 0.00 | 0.00 | 0.00 | 54 | 1020.7 |
| 20260902091119 | 73 | 261 | 2.0 | 5.0 | 0.00 | 0.00 | 0.00 | 53 | 1020.8 |
| 20260902090507 | 71 | 311 | 2.0 | 5.0 | 0.00 | 0.00 | 0.00 | 55 | 1020.9 |
| 20260902084119 | 71 | 257 | 2.0 | 5.0 | 0.00 | 0.00 | 0.00 | 57 | 1021.0 |
| 20260902083507 | 70 | 292 | 2.0 | 5.0 | 0.00 | 0.00 | 0.00 | 60 | 1021.2 |
| 20260902082507 | 70 | 305 | 3.0 | 6.0 | 0.00 | 0.00 | 0.00 | 60 | 1021.1 |
| 20260902081119 | 69 | 286 | 2.0 | 7.0 | 0.00 | 0.00 | 0.00 | 63 | 1021.2 |
| 20260902080506 | 69 | 286 | 3.0 | 6.0 | 0.00 | 0.00 | 0.00 | 63 | 1021.2 |
| 20260902075507 | 67 | 289 | 2.0 | 5.0 | 0.00 | 0.00 | 0.00 | 66 | 1021.3 |
| 20260902074120 | 67 | 288 | 2.0 | 5.0 | 0.00 | 0.00 | 0.00 | 67 | 1021.5 |
| 20260902073506 | 66 | 238 | 2.0 | 5.0 | 0.00 | 0.00 | 0.00 | 70 | 1021.5 |
| 20260902072507 | 65 | 257 | 2.0 | 4.0 | 0.00 | 0.00 | 0.00 | 71 | 1021.4 |
| 20260902071320 | 63 | 255 | 2.0 | 4.0 | 0.00 | 0.00 | 0.00 | 74 | 1021.6 |
| 20260902070506 | 63 | 258 | 2.0 | 6.0 | 0.00 | 0.00 | 0.00 | 74 | 1021.7 |
| 20260902065506 | 63 | 284 | 2.0 | 5.0 | 0.00 | 0.00 | 0.00 | 75 | 1021.6 |